DW1256 Weather Reports


Display with metric or nautical units.
time (UTC)temp
F
wind
direction
speed
MPH
gust
MPH
rain 1hr
in
rain 24hr
in
rain mn
in
humidity
%
barometer
mb
20260903161916 92 281 2.0 7.0 0.00 0.00 0.00 48 1013.4
20260903161412 91 238 3.0 8.0 0.00 0.00 0.00 49 1013.4
20260903160910 91 145 4.0 10.0 0.00 0.00 0.00 51 1013.5
20260903160409 91 275 3.0 10.0 0.00 0.00 0.00 50 1013.5
20260903155909 91 317 2.0 5.0 0.00 0.00 0.00 50 1013.5
20260903155408 90 144 2.0 5.0 0.00 0.00 0.00 49 1013.6
20260903154911 90 167 2.0 7.0 0.00 0.00 0.00 49 1013.7
20260903154408 91 222 2.0 7.0 0.00 0.00 0.00 49 1013.7
20260903153910 89 275 2.0 7.0 0.00 0.00 0.00 51 1013.7
20260903153409 89 250 2.0 5.0 0.00 0.00 0.00 50 1013.7
20260903152907 89 265 2.0 9.0 0.00 0.00 0.00 52 1013.6
20260903152408 88 236 2.0 9.0 0.00 0.00 0.00 50 1013.6
20260903151909 88 193 2.0 8.0 0.00 0.00 0.00 52 1013.6
20260903151404 88 263 2.0 8.0 0.00 0.00 0.00 51 1013.6
20260903150857 88 200 2.0 7.0 0.00 0.00 0.00 53 1013.7
20260903150353 88 251 2.0 5.0 0.00 0.00 0.00 53 1013.5
20260903145845 89 320 1.0 5.0 0.00 0.00 0.00 52 1013.6
20260903145339 89 164 1.0 5.0 0.00 0.00 0.00 53 1013.5
20260903143318 86 142 2.0 6.0 0.00 0.00 0.00 56 1013.4
20260903142810 86 273 2.0 6.0 0.00 0.00 0.00 55 1013.4
20260903141757 85 146 2.0 6.0 0.00 0.00 0.00 56 1013.4
20260903140746 85 155 2.0 10.0 0.00 0.00 0.00 56 1013.5
20260903140240 84 214 3.0 10.0 0.00 0.00 0.00 57 1013.5
20260903135734 84 161 2.0 6.0 0.00 0.00 0.00 58 1013.5
20260903134722 83 224 1.0 5.0 0.00 0.00 0.00 59 1013.5
20260903133709 83 213 1.0 4.0 0.00 0.00 0.00 60 1013.5
20260903133205 82 190 1.0 4.0 0.00 0.00 0.00 61 1013.6
20260903132658 81 142 1.0 6.0 0.00 0.00 0.00 61 1013.6
20260903132152 81 185 1.0 6.0 0.00 0.00 0.00 62 1013.6
20260903131646 80 215 1.0 6.0 0.00 0.00 0.00 63 1013.5
20260903131140 78 184 1.0 5.0 0.00 0.00 0.00 67 1013.6
20260903130634 77 182 1.0 5.0 0.00 0.00 0.00 69 1013.6
20260903130127 76 210 1.0 4.0 0.00 0.00 0.00 69 1013.6
20260903125115 76 167 0.0 5.0 0.00 0.00 0.00 70 1013.7
20260903124610 75 175 0.0 0.0 0.00 0.00 0.00 70 1013.7
20260903124108 75 173 0.0 3.0 0.00 0.00 0.00 70 1013.8
20260903123558 75 173 1.0 4.0 0.00 0.00 0.00 70 1013.8
20260903123052 75 173 1.0 4.0 0.00 0.00 0.00 70 1013.8
20260903122545 74 172 1.0 4.0 0.00 0.00 0.00 70 1013.8
20260903121533 74 162 2.0 5.0 0.00 0.00 0.00 70 1013.8
20260903121030 74 186 1.0 4.0 0.00 0.00 0.00 70 1013.8
20260903120522 74 171 0.0 4.0 0.00 0.00 0.00 70 1013.8
20260903120015 74 171 0.0 2.0 0.00 0.00 0.00 70 1013.7
20260903115511 74 134 0.0 0.0 0.00 0.00 0.00 69 1013.6
20260903115003 74 164 0.0 0.0 0.00 0.00 0.00 69 1013.7
20260903113951 74 161 0.0 0.0 0.00 0.00 0.00 69 1013.7
20260903113445 74 163 0.0 0.0 0.00 0.00 0.00 69 1013.7
20260903112940 74 163 0.0 0.0 0.00 0.00 0.00 69 1013.7
20260903112433 74 164 0.0 0.0 0.00 0.00 0.00 69 1013.7
20260903111929 74 163 0.0 0.0 0.00 0.00 0.00 69 1013.7
20260903111421 74 163 0.0 0.0 0.00 0.00 0.00 69 1013.6
20260903110916 74 163 0.0 0.0 0.00 0.00 0.00 69 1013.6
20260903110409 74 163 0.0 0.0 0.00 0.00 0.00 69 1013.6
20260903105904 74 163 0.0 0.0 0.00 0.00 0.00 69 1013.5
20260903105400 74 163 0.0 0.0 0.00 0.00 0.00 69 1013.5
20260903104346 74 160 0.0 0.0 0.00 0.00 0.00 68 1013.5
20260903103841 74 155 0.0 0.0 0.00 0.00 0.00 68 1013.4
20260903103333 74 170 0.0 0.0 0.00 0.00 0.00 68 1013.4
20260903102829 74 171 0.0 0.0 0.00 0.00 0.00 68 1013.5
20260903101311 75 170 0.0 0.0 0.00 0.00 0.00 68 1013.4
20260903100804 75 244 0.0 0.0 0.00 0.00 0.00 68 1013.5
20260903100258 75 244 0.0 1.0 0.00 0.00 0.00 68 1013.5
20260903095753 75 173 0.0 3.0 0.00 0.00 0.00 68 1013.4
20260903095245 75 141 0.0 3.0 0.00 0.00 0.00 68 1013.3
20260903094739 75 232 0.0 0.0 0.00 0.00 0.00 68 1013.4
20260903094235 75 232 0.0 0.0 0.00 0.00 0.00 68 1013.3
20260903093728 75 233 0.0 0.0 0.00 0.00 0.00 68 1013.4
20260903093221 75 235 0.0 1.0 0.00 0.00 0.00 67 1013.4
20260903092717 75 198 0.0 4.0 0.00 0.00 0.00 67 1013.4
20260903092209 75 198 0.0 4.0 0.00 0.00 0.00 67 1013.3
20260903091704 75 149 0.0 2.0 0.00 0.00 0.00 67 1013.3
20260903091159 76 149 0.0 3.0 0.00 0.00 0.00 67 1013.3
20260903090651 76 199 0.0 4.0 0.00 0.00 0.00 67 1013.3
20260903090146 76 171 0.0 4.0 0.00 0.00 0.00 67 1013.2
20260903085639 76 179 0.0 2.0 0.00 0.00 0.00 67 1013.1
20260903084121 76 157 0.0 5.0 0.00 0.00 0.00 67 1013.0
20260903083616 76 220 0.0 1.0 0.00 0.00 0.00 67 1013.1
20260903083109 76 221 0.0 2.0 0.00 0.00 0.00 67 1013.2
20260903082604 76 221 0.0 2.0 0.00 0.00 0.00 67 1013.2
20260903081553 76 167 0.0 0.0 0.00 0.00 0.00 67 1013.2
20260903081045 76 130 0.0 0.0 0.00 0.00 0.00 67 1013.2
20260903080539 76 284 0.0 0.0 0.00 0.00 0.00 67 1013.1
20260903080033 76 221 0.0 0.0 0.00 0.00 0.00 66 1013.2
20260903075528 76 332 0.0 0.0 0.00 0.00 0.00 66 1013.2
20260903074517 76 259 0.0 0.0 0.00 0.00 0.00 66 1013.3
20260903074009 76 186 0.0 2.0 0.00 0.00 0.00 66 1013.3
20260903073504 76 181 0.0 2.0 0.00 0.00 0.00 66 1013.2
20260903072957 76 181 0.0 2.0 0.00 0.00 0.00 66 1013.2
20260903072455 76 134 0.0 2.0 0.00 0.00 0.00 66 1013.2
20260903071946 76 134 0.0 2.0 0.00 0.00 0.00 66 1013.2
20260903071439 77 188 0.0 2.0 0.00 0.00 0.00 66 1013.2
20260903070933 77 188 0.0 3.0 0.00 0.00 0.00 65 1013.1
20260903070427 77 246 0.0 3.0 0.00 0.00 0.00 65 1013.1
20260903064906 77 261 0.0 2.0 0.00 0.00 0.00 65 1013.1
20260903064401 77 183 1.0 5.0 0.00 0.00 0.00 65 1013.2
20260903063853 77 180 1.0 5.0 0.00 0.00 0.00 65 1013.2
20260903063347 77 181 1.0 4.0 0.00 0.00 0.00 65 1013.1
20260903062842 77 169 0.0 4.0 0.00 0.00 0.00 65 1013.1
20260903061831 78 234 0.0 0.0 0.00 0.00 0.00 65 1013.1
20260903061324 78 171 0.0 0.0 0.00 0.00 0.00 65 1013.1
20260903060817 78 182 0.0 2.0 0.00 0.00 0.00 65 1013.0
20260903060313 78 284 0.0 4.0 0.00 0.00 0.00 65 1013.0
20260903055301 78 166 0.0 5.0 0.00 0.00 0.00 65 1013.0
20260903054758 78 165 0.0 4.0 0.00 0.00 0.00 65 1013.0
20260903054301 78 96 0.0 4.0 0.00 0.00 0.00 65 1013.0
20260903053757 78 151 1.0 4.0 0.00 0.00 0.00 65 1012.9
20260903053254 78 140 1.0 6.0 0.00 0.00 0.00 65 1012.9
20260903052757 78 150 1.0 6.0 0.00 0.00 0.00 65 1012.9
20260903052252 79 171 0.0 4.0 0.00 0.00 0.00 65 1012.9
20260903051751 79 161 0.0 0.0 0.00 0.00 0.00 65 1012.9
20260903051252 79 163 1.0 4.0 0.00 0.00 0.00 65 1012.9
20260903050750 79 162 1.0 4.0 0.00 0.00 0.00 65 1012.9
20260903050251 79 165 1.0 4.0 0.00 0.00 0.00 65 1012.9
20260903045251 80 167 0.0 1.0 0.00 0.00 0.00 65 1012.9
20260903044249 80 168 0.0 3.0 0.00 0.00 0.00 64 1012.9
20260903043751 80 197 0.0 2.0 0.00 0.00 0.00 64 1012.8
20260903043248 80 198 0.0 2.0 0.00 0.00 0.00 64 1012.8
20260903042748 81 198 0.0 1.0 0.00 0.00 0.00 64 1012.8
20260903042246 81 198 0.0 1.0 0.00 0.00 0.00 64 1012.8
20260903041741 81 190 0.0 1.0 0.00 0.00 0.00 64 1012.8
20260903041234 81 172 0.0 1.0 0.00 0.00 0.00 64 1012.9
20260903040728 81 172 0.0 1.0 0.00 0.00 0.00 64 1012.8
20260903035716 81 172 1.0 5.0 0.00 0.00 0.00 64 1012.8
20260903035210 81 176 1.0 5.0 0.00 0.00 0.00 64 1012.8
20260903034704 82 157 2.0 5.0 0.00 0.00 0.00 64 1012.7
20260903034158 82 158 3.0 6.0 0.00 0.00 0.00 64 1012.8
20260903032134 82 172 1.0 4.0 0.00 0.00 0.00 64 1012.7
20260903031628 82 172 1.0 5.0 0.00 0.00 0.00 64 1012.7
20260903031124 82 172 2.0 5.0 0.00 0.00 0.00 64 1012.7
20260903030616 82 182 2.0 5.0 0.00 0.00 0.00 63 1012.7
20260903030110 82 156 2.0 6.0 0.00 0.00 0.00 63 1012.7
20260903025603 83 176 2.0 6.0 0.00 0.00 0.00 63 1012.7
20260903025058 83 182 2.0 5.0 0.00 0.00 0.00 63 1012.7
20260903024552 83 170 2.0 5.0 0.00 0.00 0.00 63 1012.7
20260903024045 83 153 1.0 5.0 0.00 0.00 0.00 63 1012.7
20260903023540 83 184 1.0 6.0 0.00 0.00 0.00 62 1012.7
20260903023033 83 154 1.0 6.0 0.00 0.00 0.00 62 1012.8
20260903022528 83 186 1.0 5.0 0.00 0.00 0.00 62 1012.8
20260903022022 83 188 1.0 5.0 0.00 0.00 0.00 62 1012.8
20260903021517 83 148 1.0 4.0 0.00 0.00 0.00 62 1012.7
20260903021010 83 198 1.0 4.0 0.00 0.00 0.00 62 1012.7
20260903020503 84 167 1.0 4.0 0.00 0.00 0.00 62 1012.7
20260903020001 84 173 0.0 4.0 0.00 0.00 0.00 63 1012.8
20260903015452 84 148 1.0 4.0 0.00 0.00 0.00 63 1012.7
20260903014954 84 174 1.0 6.0 0.00 0.00 0.00 63 1012.7
20260903014448 84 183 1.0 6.0 0.00 0.00 0.00 63 1012.7
20260903013949 84 173 2.0 6.0 0.00 0.00 0.00 63 1012.7
20260903013453 85 193 2.0 5.0 0.00 0.00 0.00 63 1012.6
20260903012948 85 163 2.0 5.0 0.00 0.00 0.00 62 1012.6
20260903012448 85 0 2.0 4.0 0.00 0.00 0.00 62 1012.6
20260903011948 85 167 1.0 4.0 0.00 0.00 0.00 62 1012.5
20260903011446 85 175 1.0 4.0 0.00 0.00 0.00 61 1012.4
20260903010946 85 153 1.0 7.0 0.00 0.00 0.00 61 1012.4
20260903010445 86 166 2.0 7.0 0.00 0.00 0.00 61 1012.4
20260903005946 86 174 2.0 5.0 0.00 0.00 0.00 61 1012.4
20260903005445 87 181 1.0 5.0 0.00 0.00 0.00 61 1012.4
20260903004944 87 180 1.0 4.0 0.00 0.00 0.00 61 1012.4
20260903004445 87 155 1.0 2.0 0.00 0.00 0.00 60 1012.4
20260903003946 88 155 1.0 4.0 0.00 0.00 0.00 60 1012.4
20260903003443 88 155 2.0 5.0 0.00 0.00 0.00 59 1012.3
20260903002944 89 167 1.0 5.0 0.00 0.00 0.00 58 1012.4
20260903002445 89 157 1.0 4.0 0.00 0.00 0.00 58 1012.3
20260903001937 89 167 1.0 4.0 0.00 0.00 0.00 57 1012.4
20260903001432 90 160 0.0 4.0 0.00 0.00 0.00 57 1012.4
20260903000927 90 159 0.0 0.0 0.00 0.00 0.00 56 1012.5
20260903000420 91 159 0.0 0.0 0.00 0.00 0.00 56 1012.5
20260902235915 91 159 1.0 2.0 0.00 0.00 0.00 55 1012.5
20260902235407 91 157 1.0 5.0 0.00 0.00 0.00 55 1012.5
20260902234901 91 161 2.0 5.0 0.00 0.00 0.00 55 1012.5
20260902234400 92 157 2.0 4.0 0.00 0.00 0.00 54 1012.5
20260902233901 92 185 1.0 3.0 0.00 0.00 0.00 54 1012.4
20260902233403 92 150 2.0 5.0 0.00 0.00 0.00 54 1012.4
20260902232402 92 171 0.0 3.0 0.00 0.00 0.00 52 1012.5
20260902231901 92 163 1.0 2.0 0.00 0.00 0.00 51 1012.5
20260902230859 93 132 0.0 3.0 0.00 0.00 0.00 50 1012.5
20260902225401 94 152 0.0 3.0 0.00 0.00 0.00 49 1012.5
20260902224356 94 211 1.0 6.0 0.00 0.00 0.00 48 1012.5
20260902223859 95 224 0.0 4.0 0.00 0.00 0.00 47 1012.6
20260902222851 95 223 1.0 4.0 0.00 0.00 0.00 47 1012.6
20260902222351 94 157 1.0 4.0 0.00 0.00 0.00 46 1012.6
20260902221849 95 293 1.0 4.0 0.00 0.00 0.00 46 1012.6
20260902221348 95 244 1.0 4.0 0.00 0.00 0.00 45 1012.6
20260902220850 95 269 1.0 4.0 0.00 0.00 0.00 44 1012.5
20260902220348 95 229 2.0 4.0 0.00 0.00 0.00 44 1012.6
20260902215846 95 215 2.0 8.0 0.00 0.00 0.00 43 1012.6
20260902215350 95 269 2.0 8.0 0.00 0.00 0.00 45 1012.6
20260902214847 95 284 2.0 8.0 0.00 0.00 0.00 42 1012.6
20260902214349 96 255 2.0 8.0 0.00 0.00 0.00 43 1012.6
20260902213852 96 254 1.0 4.0 0.00 0.00 0.00 43 1012.6
20260902212848 95 257 2.0 7.0 0.00 0.00 0.00 45 1012.7
20260902212350 95 291 3.0 8.0 0.00 0.00 0.00 45 1012.7
20260902211848 95 270 3.0 9.0 0.00 0.00 0.00 44 1012.7
20260902211347 96 274 2.0 9.0 0.00 0.00 0.00 42 1012.7
20260902210847 96 259 3.0 8.0 0.00 0.00 0.00 42 1012.8
20260902205347 95 279 3.0 10.0 0.00 0.00 0.00 42 1012.9
20260902204846 96 273 2.0 9.0 0.00 0.00 0.00 41 1012.9
20260902204344 96 241 3.0 9.0 0.00 0.00 0.00 42 1012.9
20260902203848 95 289 3.0 9.0 0.00 0.00 0.00 42 1012.9
20260902203346 96 235 3.0 9.0 0.00 0.00 0.00 41 1012.9
20260902202843 96 255 3.0 8.0 0.00 0.00 0.00 42 1013.0
20260902202343 96 250 3.0 8.0 0.00 0.00 0.00 42 1013.0
20260902201843 95 271 3.0 8.0 0.00 0.00 0.00 43 1013.1
20260902201342 95 298 3.0 10.0 0.00 0.00 0.00 43 1013.1
20260902200846 96 221 3.0 10.0 0.00 0.00 0.00 45 1013.1
20260902200342 95 288 3.0 10.0 0.00 0.00 0.00 44 1013.2
20260902195843 94 255 3.0 8.0 0.00 0.00 0.00 43 1013.3
20260902195344 94 257 3.0 7.0 0.00 0.00 0.00 45 1013.3
20260902194844 95 273 4.0 11.0 0.00 0.00 0.00 42 1013.4
20260902194339 95 239 4.0 11.0 0.00 0.00 0.00 43 1013.5
20260902193841 95 243 5.0 10.0 0.00 0.00 0.00 43 1013.5
20260902193338 95 310 4.0 10.0 0.00 0.00 0.00 42 1013.5
20260902192340 95 219 3.0 8.0 0.00 0.00 0.00 44 1013.6
20260902191839 94 279 3.0 9.0 0.00 0.00 0.00 44 1013.7
20260902190839 93 280 3.0 10.0 0.00 0.00 0.00 44 1013.7
20260902185835 95 286 4.0 9.0 0.00 0.00 0.00 43 1013.8
20260902185336 96 279 3.0 10.0 0.00 0.00 0.00 42 1013.8
20260902184835 96 250 2.0 10.0 0.00 0.00 0.00 40 1013.7
20260902184335 96 238 3.0 11.0 0.00 0.00 0.00 45 1013.7
20260902183834 95 286 4.0 11.0 0.00 0.00 0.00 44 1013.7
20260902183337 94 288 4.0 11.0 0.00 0.00 0.00 43 1013.7
20260902182836 95 307 2.0 11.0 0.00 0.00 0.00 45 1013.7
20260902182334 96 231 2.0 7.0 0.00 0.00 0.00 44 1013.8
20260902181836 94 238 3.0 7.0 0.00 0.00 0.00 45 1013.8
20260902181338 94 277 3.0 8.0 0.00 0.00 0.00 44 1013.9
20260902180835 94 304 2.0 9.0 0.00 0.00 0.00 44 1013.9
20260902180336 95 244 3.0 9.0 0.00 0.00 0.00 44 1013.8
20260902175836 94 246 2.0 7.0 0.00 0.00 0.00 46 1013.9
20260902174835 93 175 4.0 11.0 0.00 0.00 0.00 47 1013.9
20260902174336 92 267 3.0 11.0 0.00 0.00 0.00 47 1014.0
20260902173835 93 279 2.0 8.0 0.00 0.00 0.00 47 1014.0
20260902173334 93 277 3.0 9.0 0.00 0.00 0.00 48 1014.0
20260902172836 93 240 2.0 9.0 0.00 0.00 0.00 46 1014.1
20260902172335 93 280 2.0 7.0 0.00 0.00 0.00 48 1014.1
20260902171836 93 251 3.0 10.0 0.00 0.00 0.00 47 1014.2
20260902170836 92 242 2.0 7.0 0.00 0.00 0.00 46 1014.2
20260902170339 92 155 2.0 5.0 0.00 0.00 0.00 49 1014.3
20260902165837 93 217 2.0 7.0 0.00 0.00 0.00 49 1014.3
20260902165334 91 231 3.0 7.0 0.00 0.00 0.00 49 1014.2
20260902164333 91 275 3.0 10.0 0.00 0.00 0.00 50 1014.2
20260902163824 89 237 4.0 10.0 0.00 0.00 0.00 50 1014.2
20260902163317 90 227 3.0 10.0 0.00 0.00 0.00 50 1014.3
20260902162307 90 252 3.0 9.0 0.00 0.00 0.00 50 1014.3